Location: *
(48.8489°N, 2.3218°E)
Time: 13:03:57
(UTC+00:00)

Cosmos 1674 Rocket - Pass Details

Date: 23 August 2019
Orbit: 602 x 631 km, 82.5° (Epoch: 22 September)

Event Time Altitude Azimuth Distance (km) Brightness Sun altitude
Rises 20:22:31 0° 347° (NNW) 2,887 7.8 -14.1°
Reaches altitude 10° 20:24:47 10° 344° (NNW) 1,973 6.9 -14.4°
Maximum altitude 20:29:05 62° 264° (W) 686 4.0 -14.9°
Enters shadow 20:33:16 10° 184° (S) 1,923 5.8 -15.5°
